Regional Weather Roundup
Issued by NWS Cleveland, OH

Home | Current Version | Previous Version | Graphics & Text | Print | Product List | Glossary On
Versions: 1 2 3 4 5 6 7 8 9 10 11 12 13 14 15 16 17 18 19 20 21 22 23 24 25 26 27 28 29 30 31 32 33 34 35 36 37 38 39 40 41 42 43 44 45 46 47 48 49 50
000
ASUS41 KCLE 180012
RWRCLE
OHIO REGIONAL WEATHER ROUNDUP
NATIONAL WEATHER SERVICE WILMINGTON, OH
700 PM EST TUE JAN 17 2017

NOTE: "FAIR" INDICATES FEW OR NO CLOUDS BELOW 12,000 FEET WITH NO
SIGNIFICANT WEATHER AND/OR OBSTRUCTIONS TO VISIBILITY.

OHZ001>008-015>018-024>027-034-035-043-044-180100-
   NORTHWEST OHIO

CITY           SKY/WX    TMP DP  RH WIND       PRES   REMARKS
DEFIANCE       CLOUDY    44  39  82 W12G17    29.92R
FINDLAY        CLOUDY    46  42  86 W15       29.91R
TOLEDO EXPRESS CLOUDY    42  42 100 W18G25    29.89R FOG
TOLEDO EXEC    CLOUDY    44  43  96 W15       29.90R
LIMA           CLOUDY    44  43  96 W20       29.93R
$$

OHZ009>014-019>023-028>033-038-089-180100-
   NORTHEAST OHIO

CITY           SKY/WX    TMP DP  RH WIND       PRES   REMARKS
CLE-HOPKINS    CLOUDY    52  44  74 W12       29.89R
CLE-LAKEFRONT  CLOUDY    40  37  89 SW7       29.86R
CUY CO. ARPT   CLOUDY    48  32  53 W14       29.86R
LORAIN-ELYRIA  CLOUDY    49  41  74 W16G26    29.88R
ASHTABULA      CLOUDY    48  47  96 W10       29.85R FOG
AKRON-CANTON   MOCLDY    62  44  51 W12       29.87R
WOOSTER        CLOUDY    50  43  77 W20G26    29.88R
MANSFIELD      CLOUDY    48  43  82 W12       29.90R
YOUNGSTOWN     MOCLDY    51  44  77 W12       29.86R
$$

OHZ042-051>053-060>062-070>072-077>081-180100-
  SOUTHWEST OHIO

CITY           SKY/WX    TMP DP  RH WIND       PRES   REMARKS
CINC-COVINGTON CLOUDY    49  42  77 W15G22    30.00R
CINC-LUNKEN    CLOUDY    50  44  80 W13       30.02R
HAMILTON       CLOUDY    48  41  76 W13G20    30.02R
DAYTON         CLOUDY    45  41  86 W16       29.98R
WRIGHT-PAT AFB CLOUDY    47  43  85 SW12      29.97R
DAYTON GENERAL CLOUDY    47  41  80 W12       29.98R
WILMINGTON     CLOUDY    48  43  82 W14G25    29.97R
$$

OHZ036-037-039>041-045>050-054>059-063>069-073>076-082>088-180100-
  CENTRAL AND SOUTHEAST OHIO

CITY           SKY/WX    TMP DP  RH WIND       PRES   REMARKS
COLUMBUS       CLOUDY    53  44  71 W20       29.93R
OSU AIRPORT    CLOUDY    50  44  80 W16       29.92R
BOLTON FIELD   CLOUDY    52  46  82 W8        29.95R
RICKENBACK AFB   N/A     52  45  78 W14       29.94R
NEWARK         CLOUDY    54  45  71 W12       29.91R
MARION         CLOUDY    48  42  80 W10       29.93R
LANCASTER      CLOUDY    55  44  66 W14       29.93R
ZANESVILLE     FAIR      56  46  69 W13G22    29.90R
NEW PHILLY     CLOUDY    56  46  69 W10       29.88S
$$




USA.gov is the U.S. government's official web portal to all federal, state and local government web resources and services.